Вернуться в каталог

STARLINK-34392

АктивенСвязьVLEO
NORAD 64451·PAYLOAD·🇺🇸 United States

Запущен Jun 18, 2025 с Cape Canaveral Space Force Station

Loading…

Ближайшие Пролёты (ближайшие 24 часа)

TLE

СвежийSource: CelesTrak SupGP

Эпоха: Sep 15, 2026, 02:45 UTC

1 64451C 25130P   26258.11506944  .00011601  00000+0  34276-3 0  2585
2 64451  53.1571 287.0793 0001276  85.2208  52.0801 15.34385183    19

Отслеживайте STARLINK-34392 в реальном времени с AllMySat

Download on the App Store